Wind_Speed
10 10 9 8 8 8 8 8 8 9 9 10 11 11 12 12 12 11 11 10 9 9 9 10 10 9 7 5 4 4 3 3 3 3 4 4 5 6 6 7 7 7 7
10 10 9 8 7 7 7 7 7 8 9 10 10 11 12 12 13 13 12 12 11 10 9 9 9 9 8 6 5 4 4 3 2 2 2 3 3 4 5 5 6 6 6
9 9 8 8 7 7 6 6 7 7 8 9 10 11 12 13 13 14 14 13 13 12 11 10 9 8 7 7 6 5 4 4 3 2 1 1 2 3 4 4 5 5 5
8 7 7 7 7 6 6 6 7 7 8 9 10 11 12 13 14 15 15 15 15 14 13 12 10 9 7 7 6 5 5 4 4 3 2 1 1 2 3 3 4 4 4
8 7 7 7 7 7 6 7 7 8 9 10 10 11 12 13 14 15 16 17 17 17 16 15 13 11 9 7 7 6 5 5 4 4 4 3 2 2 2 3 3 3 4
9 8 8 8 8 8 9 9 10 12 13 13 13 14 15 15 16 16 17 18 18 19 18 17 16 14 12 11 9 8 7 6 5 5 5 4 3 3 3 3 3 4 4
11 11 10 10 10 11 12 13 14 15 16 17 18 18 18 18 18 19 19 20 20 20 20 20 19 18 16 15 13 12 11 9 8 7 6 6 6 5 4 4 4 5 5
13 13 13 13 14 15 16 17 17 18 20 20 21 21 22 22 22 22 22 22 22 22 21 21 21 21 20 19 18 17 15 14 12 11 10 9 8 7 7 6 6 6 7
14 15 16 17 17 18 19 19 20 21 23 23 24 24 25 25 25 25 25 25 24 24 24 23 23 23 22 22 22 21 20 18 17 15 14 12 12 11 10 9 8 8 8
18 17 18 18 19 19 20 21 23 24 25 26 26 26 27 27 28 28 28 28 27 27 26 26 25 25 25 25 25 24 24 23 21 20 18 16 15 14 14 13 11 11 11
21 21 21 21 21 21 22 23 24 25 25 26 27 28 28 29 30 30 30 30 29 29 29 28 28 27 27 27 27 27 26 26 26 24 22 20 19 18 17 16 15 14 14
24 24 24 24 23 24 25 25 25 26 27 28 29 30 30 31 31 31 31 31 31 31 31 31 31 30 30 29 29 29 28 28 28 27 25 23 22 21 20 19 18 17 17
26 27 26 26 26 27 28 28 28 29 30 30 31 31 31 32 32 33 33 32 33 34 35 34 33 33 32 32 31 30 30 30 29 29 27 25 25 24 23 22 21 21 20
29 30 29 29 29 30 31 31 31 32 33 34 34 34 33 33 34 35 35 34 34 34 36 38 36 35 34 34 33 31 31 30 30 29 28 26 27 26 25 24 23 23 22
33 33 32 33 32 32 33 34 34 34 35 36 37 36 35 35 35 36 35 35 35 35 37 39 39 37 37 35 34 33 31 30 30 28 28 27 27 27 26 25 24 23 23
35 35 35 35 34 34 35 36 36 37 37 38 38 38 38 37 36 36 36 37 36 36 38 39 39 38 37 36 35 34 33 32 30 29 28 27 27 27 26 26 24 24 24
33 34 35 35 34 35 36 38 39 39 40 40 39 39 38 37 37 36 36 36 37 37 37 38 38 39 38 37 36 35 34 32 31 30 29 28 27 27 27 26 25 24 23
31 32 34 35 35 36 37 39 41 42 42 42 41 40 39 38 37 36 36 37 37 36 37 37 38 37 37 37 36 35 34 33 32 32 30 29 28 28 26 26 25 24 23
30 32 34 36 37 39 39 40 41 42 42 42 41 40 39 39 38 38 37 37 37 36 36 37 36 35 36 36 35 35 35 35 33 32 31 30 29 28 26 26 25 24 23
30 32 34 36 38 39 40 41 41 40 40 40 40 39 39 39 39 39 39 38 38 36 36 35 32 32 34 35 35 34 34 36 35 33 32 31 30 28 26 25 24 23 22
30 32 34 35 37 38 39 40 40 40 40 41 41 40 39 40 40 40 40 39 38 37 36 33 31 31 33 34 34 35 35 35 34 33 31 30 29 28 26 25 24 23 22
29 31 32 34 36 38 39 40 40 41 41 42 42 41 41 41 42 42 41 40 39 38 37 34 33 31 32 34 34 34 34 34 33 32 31 30 29 28 27 26 25 24 22
30 32 34 35 36 38 40 41 41 41 41 42 42 42 41 41 42 43 42 41 40 39 37 36 35 33 32 32 32 33 34 33 33 32 32 31 30 30 29 27 26 24 23
32 34 35 35 36 38 39 40 40 40 41 41 42 42 42 42 42 41 41 40 40 39 38 37 36 35 34 32 32 34 35 34 33 32 32 32 32 31 29 28 26 25 24
33 34 36 36 37 38 39 40 41 41 41 42 42 42 41 40 40 39 39 38 38 37 37 38 38 37 36 35 34 33 34 35 36 34 32 31 32 32 31 30 28 26 25
33 34 36 37 38 39 39 40 41 41 41 41 41 40 39 38 38 38 37 36 36 36 36 36 37 38 38 39 38 35 35 35 36 36 35 33 33 33 33 32 30 28 27
Wind_Direction
294 290 288 292 298 305 312 320 328 334 336 337 335 334 332 331 331 332 335 339 345 354 3 11 15 13 7 354 338 335 347 8 23 43 57 63 72 84 101 112 114 110 106
303 301 295 297 299 303 310 318 326 332 334 333 331 328 326 325 326 326 327 329 331 338 346 355 3 7 6 360 343 328 321 332 350 10 50 74 83 91 105 117 121 118 112
303 302 300 300 301 304 311 318 325 330 331 330 327 325 322 320 320 321 322 322 322 324 330 337 345 352 357 357 348 333 315 305 304 310 312 106 110 110 115 123 128 126 123
305 304 304 304 305 309 315 320 325 328 327 324 322 321 319 316 315 315 316 316 314 315 318 321 326 330 336 341 339 331 319 300 288 280 273 241 174 153 141 139 142 141 139
309 310 309 309 311 315 319 321 322 322 320 317 315 314 313 311 310 309 309 309 308 308 308 309 310 312 313 316 316 312 309 301 287 277 272 264 232 195 177 170 166 167 166
309 314 314 314 316 318 319 317 317 317 315 314 312 309 308 307 306 304 303 302 301 300 300 300 299 299 298 297 295 292 289 288 284 277 269 266 253 232 213 202 196 193 194
305 308 311 315 316 317 318 316 315 315 313 310 308 306 304 302 300 299 298 296 295 293 292 293 291 289 288 287 284 281 279 276 275 276 273 265 258 248 237 226 219 216 217
304 306 308 311 311 311 310 311 312 311 309 307 306 304 301 299 297 295 293 292 290 288 286 285 285 283 281 279 278 276 274 272 269 269 269 267 262 256 249 240 234 230 228
302 303 304 305 305 306 307 309 309 308 307 306 305 303 302 298 295 293 290 289 288 285 284 280 278 277 275 274 273 273 272 270 268 265 264 264 263 259 254 248 243 238 236
300 301 301 303 303 304 304 306 307 307 306 305 304 303 300 297 294 292 290 288 287 284 282 279 275 273 271 270 269 269 269 269 267 265 263 261 261 258 254 250 246 243 242
300 301 301 301 301 302 304 304 304 304 305 305 304 302 300 298 295 292 290 289 286 284 281 277 274 271 269 267 266 266 266 267 266 265 263 259 259 256 254 251 248 244 244
299 301 302 301 301 301 302 302 301 301 302 304 304 302 299 297 295 292 288 287 287 285 283 280 274 270 268 264 262 262 263 264 265 263 262 258 256 255 254 252 249 246 245
294 297 299 300 301 302 301 301 301 300 301 300 301 302 299 297 295 293 290 288 287 286 285 281 278 272 267 263 258 258 259 261 263 262 259 256 254 252 251 251 249 246 246
292 296 296 297 298 299 299 300 300 299 300 300 300 300 298 298 296 296 293 290 286 285 287 284 280 274 269 265 258 254 255 258 258 260 259 254 251 250 249 249 249 247 248
288 291 292 293 294 296 297 297 298 297 298 299 299 299 298 297 297 296 294 292 289 286 286 283 280 276 269 264 257 252 251 254 254 258 257 251 248 248 247 245 246 247 248
284 286 287 289 291 292 293 295 296 296 296 297 297 296 296 295 295 293 292 291 291 289 288 283 278 274 270 264 257 252 250 250 251 254 253 248 245 243 244 242 244 247 247
281 282 285 286 288 289 292 293 293 293 293 293 293 293 294 293 292 291 290 292 291 289 289 284 278 273 268 263 256 253 250 249 250 251 252 247 242 242 242 241 242 244 246
279 282 284 287 289 290 290 291 291 291 291 290 290 290 291 291 290 289 289 292 292 289 286 282 276 272 265 261 256 252 250 249 250 250 250 246 243 242 242 241 240 243 246
280 282 284 286 288 290 290 290 291 290 289 288 287 287 288 287 287 287 287 289 290 288 284 283 276 271 262 257 253 252 251 250 251 250 249 247 244 241 241 241 241 242 244
284 284 285 286 288 289 289 290 290 290 289 287 286 285 286 286 286 285 285 286 288 288 285 281 272 267 261 255 251 252 251 250 250 251 249 247 246 241 239 239 241 240 240
285 285 285 286 287 288 289 289 289 289 289 288 287 287 286 285 285 284 284 285 285 284 285 280 270 265 259 253 251 251 251 250 249 249 249 247 246 242 239 236 237 239 239
288 288 288 289 290 290 290 290 290 290 289 288 288 287 286 285 284 283 283 282 282 282 281 276 272 268 262 257 251 249 249 249 247 247 245 245 244 242 239 235 233 235 235
295 294 294 294 294 295 294 294 293 292 291 290 289 288 287 286 284 283 283 282 281 279 277 274 271 271 266 259 253 251 248 248 247 245 243 243 243 241 238 235 231 229 229
302 301 301 300 300 299 298 298 297 296 295 294 292 291 290 288 286 285 283 282 280 278 275 272 270 268 264 258 255 253 250 247 245 244 243 241 239 237 235 231 227 225 224
308 308 307 306 305 304 303 302 301 299 298 297 296 294 293 291 289 287 285 283 281 279 275 272 270 267 263 259 257 255 249 244 244 243 240 238 235 233 231 227 224 221 220
313 312 311 310 309 308 306 305 304 302 300 299 298 296 294 293 291 290 287 285 282 280 277 273 270 266 262 259 256 254 251 246 243 242 238 235 232 231 228 224 221 218 216
Height
5912 5911 5911 5911 5911 5910 5909 5909 5908 5908 5907 5906 5906 5905 5904 5904 5903 5903 5902 5901 5901 5900 5899 5898 5897 5896 5894 5894 5893 5893 5893 5892 5892 5892 5891 5891 5891 5891 5892 5892 5893 5894 5894
5911 5910 5910 5910 5910 5910 5909 5908 5908 5907 5907 5906 5905 5905 5904 5904 5903 5902 5902 5901 5901 5900 5899 5898 5897 5896 5895 5894 5893 5893 5893 5893 5893 5892 5892 5892 5892 5892 5893 5893 5894 5895 5895
5910 5910 5910 5909 5909 5909 5908 5908 5907 5907 5906 5906 5905 5905 5904 5903 5903 5902 5901 5901 5900 5900 5899 5898 5898 5896 5895 5894 5893 5893 5893 5893 5893 5893 5893 5893 5893 5893 5893 5894 5895 5896 5896
5910 5909 5909 5908 5908 5908 5907 5907 5906 5906 5905 5905 5904 5904 5903 5903 5902 5901 5901 5900 5899 5899 5898 5898 5897 5896 5895 5894 5894 5893 5893 5893 5893 5893 5893 5893 5893 5893 5894 5895 5895 5896 5897
5909 5909 5908 5907 5907 5906 5906 5905 5905 5904 5904 5904 5903 5903 5902 5901 5901 5900 5899 5899 5898 5898 5897 5897 5896 5896 5895 5894 5894 5893 5893 5893 5893 5893 5893 5893 5893 5894 5894 5895 5896 5897 5898
5909 5908 5907 5907 5906 5905 5905 5904 5904 5903 5903 5902 5901 5901 5900 5900 5899 5898 5898 5897 5896 5896 5895 5895 5895 5894 5894 5894 5893 5893 5893 5893 5893 5893 5893 5893 5893 5893 5894 5895 5896 5897 5898
5907 5907 5906 5906 5905 5904 5904 5903 5902 5901 5901 5900 5899 5898 5898 5897 5896 5896 5895 5894 5893 5893 5893 5893 5893 5893 5892 5892 5892 5892 5892 5892 5892 5892 5892 5892 5892 5893 5893 5894 5895 5896 5897
5905 5905 5904 5904 5903 5902 5901 5901 5900 5899 5898 5897 5896 5895 5894 5893 5892 5892 5891 5890 5890 5890 5889 5889 5890 5890 5890 5890 5890 5890 5890 5890 5890 5891 5892 5891 5891 5892 5893 5893 5894 5895 5897
5903 5903 5902 5901 5900 5899 5899 5898 5897 5896 5894 5893 5892 5891 5890 5889 5888 5887 5886 5886 5885 5885 5885 5885 5886 5886 5886 5886 5887 5887 5887 5887 5888 5888 5889 5890 5890 5891 5891 5892 5893 5894 5895
5900 5900 5899 5899 5898 5897 5896 5894 5893 5892 5890 5889 5887 5886 5885 5884 5882 5881 5881 5880 5880 5880 5880 5880 5881 5881 5881 5882 5883 5883 5883 5884 5884 5885 5886 5888 5888 5888 5889 5890 5891 5892 5893
5896 5896 5896 5895 5895 5893 5892 5891 5889 5888 5886 5884 5883 5881 5880 5878 5877 5876 5875 5874 5874 5873 5873 5874 5874 5875 5876 5877 5878 5878 5879 5879 5880 5881 5883 5884 5885 5885 5886 5887 5888 5890 5891
5893 5892 5892 5891 5890 5889 5888 5887 5885 5884 5882 5880 5878 5876 5874 5873 5871 5870 5870 5868 5867 5866 5866 5867 5867 5868 5869 5870 5871 5873 5874 5874 5875 5876 5878 5880 5881 5882 5883 5884 5885 5887 5888
5889 5889 5888 5887 5886 5884 5883 5882 5880 5879 5877 5875 5873 5871 5869 5867 5866 5864 5863 5862 5861 5859 5859 5859 5859 5860 5862 5863 5864 5866 5868 5868 5869 5870 5873 5874 5875 5877 5878 5880 5881 5883 5884
5883 5884 5883 5882 5881 5879 5878 5876 5875 5873 5871 5869 5867 5865 5863 5862 5860 5858 5856 5854 5853 5852 5851 5850 5851 5852 5853 5855 5857 5859 5861 5862 5863 5864 5866 5869 5869 5871 5873 5875 5876 5878 5880
5878 5879 5878 5877 5876 5874 5873 5871 5869 5867 5865 5863 5860 5858 5856 5855 5854 5852 5850 5848 5846 5844 5844 5842 5842 5843 5844 5846 5848 5851 5854 5856 5857 5858 5860 5862 5863 5866 5868 5869 5871 5873 5875
5874 5874 5872 5871 5871 5869 5867 5865 5863 5861 5859 5857 5854 5852 5850 5848 5846 5845 5843 5841 5838 5836 5834 5833 5833 5834 5835 5838 5840 5843 5846 5848 5850 5852 5854 5855 5857 5859 5862 5864 5866 5868 5870
5869 5868 5867 5866 5865 5863 5861 5858 5856 5854 5851 5849 5847 5844 5842 5840 5838 5837 5835 5833 5831 5829 5826 5825 5824 5825 5826 5829 5832 5835 5837 5840 5843 5845 5847 5849 5851 5853 5855 5858 5860 5862 5865
5864 5863 5861 5860 5858 5856 5853 5851 5848 5845 5843 5840 5838 5836 5834 5832 5830 5828 5827 5825 5823 5820 5818 5817 5816 5817 5818 5820 5823 5826 5829 5832 5835 5838 5840 5842 5845 5847 5849 5851 5854 5857 5859
5859 5857 5855 5853 5851 5848 5846 5843 5840 5837 5834 5831 5829 5827 5825 5823 5822 5820 5819 5817 5815 5812 5810 5808 5807 5808 5809 5812 5815 5818 5821 5825 5828 5831 5834 5836 5838 5840 5842 5845 5848 5851 5854
5853 5851 5849 5846 5843 5840 5837 5834 5831 5828 5825 5822 5820 5818 5817 5814 5813 5811 5810 5808 5806 5804 5802 5799 5798 5800 5802 5804 5807 5810 5813 5817 5820 5823 5826 5829 5831 5834 5836 5839 5842 5845 5848
5847 5844 5841 5839 5836 5832 5829 5826 5823 5820 5817 5813 5811 5809 5807 5805 5803 5802 5800 5799 5797 5795 5794 5791 5791 5791 5793 5796 5799 5802 5806 5808 5812 5815 5819 5822 5825 5828 5831 5834 5837 5840 5843
5840 5837 5834 5831 5828 5824 5820 5817 5814 5811 5808 5804 5801 5799 5798 5796 5793 5791 5790 5789 5788 5787 5786 5785 5784 5785 5786 5788 5791 5793 5797 5801 5804 5807 5811 5815 5818 5822 5825 5827 5831 5835 5838
5832 5829 5826 5823 5819 5815 5811 5807 5804 5801 5798 5794 5791 5789 5787 5785 5783 5781 5780 5779 5779 5778 5778 5777 5777 5777 5779 5781 5783 5786 5789 5792 5796 5800 5804 5807 5811 5814 5818 5821 5826 5829 5833
5825 5821 5817 5814 5811 5806 5802 5797 5794 5790 5787 5784 5781 5778 5776 5774 5772 5770 5769 5769 5768 5768 5769 5769 5769 5770 5771 5773 5775 5777 5780 5783 5788 5792 5795 5799 5802 5807 5811 5815 5820 5824 5828
5818 5813 5809 5805 5801 5797 5793 5788 5784 5780 5776 5773 5770 5767 5765 5762 5760 5759 5758 5757 5757 5757 5758 5759 5760 5761 5763 5764 5767 5769 5771 5774 5778 5783 5787 5791 5795 5799 5804 5808 5813 5818 5822
5811 5806 5801 5797 5792 5787 5783 5779 5774 5770 5766 5763 5759 5756 5754 5752 5750 5748 5747 5747 5747 5747 5747 5748 5750 5751 5753 5755 5758 5761 5763 5766 5769 5773 5778 5782 5787 5791 5796 5801 5806 5812 5816